Location: Tel Aviv
(32.0670°N, 34.7670°E)
Time: 02:28:20
(UTC+02:00)

Transit 4A - Pass Details

Date: 07 December 2023
Orbit: 869 x 974 km, 66.8° (Epoch: 23 February)

Event Time Altitude Azimuth Distance (km) Brightness Sun altitude
Rises 20:19:38 0° 252° (WSW) 3,660 11.7 -46.5°
Reaches altitude 10° 20:23:19 10° 273° (W) 2,715 10.9 -47.3°
Enters shadow 20:25:06 14° 288° (WNW) 2,419 10.5 -47.7°
